Погода в Фиагдоне

Россия / Республика Северная Осетия — Алания     43°04′32″N   44°26′14″E
темп.,
°C
ветер,
м/с
пор.,
м/с
влажн.,
%
обл.,
%
осадки,
мм/ч
давл.,
гПа
погр.,
м
19 апреля, пн
пн1900:00+11юз1181100 0.0 101613
03:00+10ююз1183100 0.0 101712
06:00+11ю227030 0.0 101523
09:00+17с21535 0.0 1014562
12:00+18с325655 0.0 1014998
15:00+19с325774 0.2 10131202
18:00+17с246895 0.1 1014179
21:00+14зюз227593 0.3 101660
20 апреля, вт
вт2000:00+12з239199 0.0 1016113
03:00+12юв2280100 0.0 101242
06:00+13ю2269100 0.0 101023
09:00+20ссз2247100 0.0 1008382
12:00+24з133587 0.0 10061229
15:00+24зюз3538100 0.3 10061322
18:00+20юв235099 0.4 100567
21:00+17с1458100 0.4 100997
21 апреля, ср
ср2100:00+13ссз3496100 0.6 1014348
03:00+10ссз2391100 1.6 1016527
06:00+9св238389 0.1 1017378
09:00+11ссв336435 0.2 1018925
12:00+10св238050 1.9 1018399
15:00+11ссв2276100 2.9 1017754
18:00+10св2383100 0.7 1020326
21:00+9с1285100 0.8 1021206
22 апреля, чт
чт2200:00+9с1187100 0.1 1021154
03:00+8ссз1190100 0.1 1021162
06:00+8сз2291100 0.2 1021206
09:00+8с2295100 1.3 1023337
12:00+7с2294100 1.1 1024393
15:00+7ссв0189100 1.4 1023369
18:00+7с1192100 1.1 1023168
21:00+7с1198100 6.2 1023204
23 апреля, пт
пт2300:00+6сз1298100 5.8 1023241
03:00+5ююз1294100 11.4 1024181
06:00+5ю0195100 5.8 1024116
09:00+6зсз2393100 8.6 1025437
12:00+6зсз1288100 0.6 1025537
15:00+9ююв228137 0.7 1024443
18:00+10св027842 0.0 102343
21:00+6ю22813 0.0 102516